Weather reports worldwide

Advertisment
Salsburgh, United Kingdom (99024): temperature & dewpoint: 20.03.2019 19:00:00 - 26.03.2019 19:00:00 (GMT)Salsburgh, United Kingdom (99024): wind speed & gusts: 20.03.2019 19:00:00 - 26.03.2019 19:00:00 (GMT)Salsburgh, United Kingdom (99024): wind direction: 20.03.2019 19:00:00 - 26.03.2019 19:00:00 (GMT)Salsburgh, United Kingdom (99024): precipitation: 20.03.2019 19:00:00 - 26.03.2019 19:00:00 (GMT)
Date & Time tt [°C] td [°C] ff [km/h] ff [kn] fx [km/h] fx [kn] dd rr [mm]
26.03.2019 19:00:00 7,1 5,5 24 13 - - WNW 0,0
26.03.2019 18:00:00 7,2 5,9 22 12 - - W 0,0
26.03.2019 17:00:00 7,1 6,0 26 14 - - WNW 0,0
26.03.2019 16:00:00 6,8 6,0 22 12 - - WNW 0,0
26.03.2019 15:00:00 6,5 6,1 21 11 - - W 0,2
26.03.2019 14:00:00 6,8 5,8 24 13 - - W 0,2
26.03.2019 13:00:00 6,6 5,4 26 14 50 27 NW 0,0
26.03.2019 12:00:00 6,9 4,5 34 18 - - NNW 0,0
26.03.2019 11:00:00 7,2 5,7 29 16 46 25 W 0,0
26.03.2019 10:00:00 6,4 4,2 31 17 48 26 W 0,0
26.03.2019 09:00:00 6,2 4,7 35 19 48 26 W 0,0
26.03.2019 08:00:00 5,0 4,2 34 18 46 25 NNW 0,0
26.03.2019 07:00:00 4,6 3,9 18 10 - - NW 0,0
26.03.2019 06:00:00 4,3 3,5 28 15 - - WSW 0,0
26.03.2019 05:00:00 4,7 3,6 26 14 - - W 0,0
26.03.2019 04:00:00 4,8 4,2 24 13 - - WSW 0,0
26.03.2019 03:00:00 4,6 4,4 26 14 - - WSW 0,0
26.03.2019 02:00:00 5,3 4,0 21 11 - - NW 0,0
26.03.2019 01:00:00 5,2 4,1 16 9 - - W 0,0
26.03.2019 00:00:00 5,3 4,3 15 8 - - W 0,0
25.03.2019 23:00:00 5,0 3,8 15 8 - - W 0,0
25.03.2019 22:00:00 5,3 3,3 16 9 - - W 0,0
25.03.2019 21:00:00 5,6 3,0 16 9 - - W 0,0
25.03.2019 20:00:00 5,0 1,5 21 11 - - NW 0,0
25.03.2019 19:00:00 5,1 1,1 18 10 - - W 0,0
25.03.2019 18:00:00 7,1 1,5 16 9 - - W 0,0
25.03.2019 17:00:00 9,5 1,9 24 13 - - W 0,0
25.03.2019 16:00:00 8,9 1,9 21 11 - - WNW 0,0
25.03.2019 15:00:00 8,3 0,5 22 12 - - WNW 0,0
25.03.2019 14:00:00 8,1 1,3 24 13 - - W 0,0
25.03.2019 13:00:00 8,0 0,3 16 9 - - WNW 0,0
25.03.2019 12:00:00 8,3 0,2 18 10 - - WNW 0,0
25.03.2019 11:00:00 7,4 -0,1 8 4 - - WNW 0,0
25.03.2019 10:00:00 6,3 -0,5 18 10 - - W 0,0
25.03.2019 09:00:00 4,8 0,6 15 8 - - W 0,0
25.03.2019 08:00:00 2,5 0,1 11 6 - - W 0,0
25.03.2019 07:00:00 1,4 0,0 15 8 - - W 0,0
25.03.2019 06:00:00 1,0 -0,4 15 8 - - WNW 0,0
25.03.2019 05:00:00 1,1 0,1 21 11 - - WNW 0,0
25.03.2019 04:00:00 1,7 -0,1 15 8 - - W 0,0
25.03.2019 03:00:00 1,8 -0,3 13 7 - - WNW 0,0
25.03.2019 02:00:00 2,2 0,2 15 8 - - SW 0,0
25.03.2019 01:00:00 2,8 0,1 28 15 - - W 0,0
25.03.2019 00:00:00 3,0 0,0 29 16 - - WNW 0,0
24.03.2019 23:00:00 2,7 -0,2 22 12 - - W 0,0
24.03.2019 22:00:00 2,7 -0,6 22 12 46 25 W 0,0
24.03.2019 21:00:00 2,9 -0,6 34 18 48 26 W 0,0
24.03.2019 20:00:00 2,8 -0,2 31 17 55 30 W 0,0
24.03.2019 19:00:00 4,3 0,3 42 23 59 32 WNW 0,0
24.03.2019 18:00:00 4,6 1,1 44 24 70 38 W 0,0
24.03.2019 17:00:00 5,8 0,7 41 22 72 39 W 0,0
24.03.2019 16:00:00 6,2 2,1 44 24 72 39 WNW 0,2
24.03.2019 15:00:00 6,5 2,2 50 27 76 41 W 0,0
24.03.2019 14:00:00 5,9 4,1 48 26 72 39 WNW 0,2
24.03.2019 13:00:00 7,0 4,2 46 25 68 37 W 0,0
24.03.2019 12:00:00 6,4 4,8 48 26 67 36 W 0,2
24.03.2019 11:00:00 4,7 4,1 39 21 70 38 WNW 1,4
24.03.2019 10:00:00 4,5 3,7 39 21 63 34 W 0,2
24.03.2019 09:00:00 4,1 2,9 37 20 59 32 SW 0,0
24.03.2019 08:00:00 4,4 2,4 42 23 55 30 WSW 0,0
24.03.2019 07:00:00 3,6 2,2 35 19 50 27 NNW 0,0
24.03.2019 06:00:00 3,3 2,2 37 20 52 28 W 0,0
24.03.2019 05:00:00 3,3 1,9 35 19 54 29 W 0,0
24.03.2019 04:00:00 3,1 1,6 35 19 46 25 SW 0,0
24.03.2019 03:00:00 2,8 1,6 29 16 - - SW 0,0
24.03.2019 02:00:00 2,7 2,0 26 14 - - SW 0,0
24.03.2019 01:00:00 1,5 1,1 21 11 - - SW 0,0
24.03.2019 00:00:00 2,6 2,0 24 13 - - W 0,0
23.03.2019 23:00:00 3,1 2,4 31 17 - - WSW 0,0
23.03.2019 22:00:00 2,9 1,5 21 11 - - SW 0,0
23.03.2019 21:00:00 3,3 1,4 24 13 - - SW 0,0
23.03.2019 20:00:00 3,6 1,0 18 10 - - SW 0,0
23.03.2019 19:00:00 4,2 1,3 21 11 - - W 0,0
23.03.2019 18:00:00 5,3 1,4 24 13 - - W 0,0
23.03.2019 17:00:00 5,4 1,2 24 13 - - W 0,0
23.03.2019 16:00:00 5,7 2,6 26 14 - - W 0,0
23.03.2019 15:00:00 6,9 -0,6 29 16 - - W 0,0
23.03.2019 14:00:00 7,0 1,7 24 13 54 29 WNW 0,0
23.03.2019 13:00:00 7,1 0,8 26 14 - - WSW 0,0
23.03.2019 12:00:00 7,9 0,6 28 15 46 25 W 0,0
23.03.2019 11:00:00 6,5 0,5 31 17 48 26 W 0,0
23.03.2019 10:00:00 5,7 1,3 28 15 48 26 W 0,0
23.03.2019 09:00:00 4,5 1,6 28 15 - - W 0,0
23.03.2019 08:00:00 3,5 1,0 26 14 - - WSW 0,0
23.03.2019 07:00:00 2,6 0,6 28 15 - - NW 0,0
23.03.2019 06:00:00 2,1 0,0 31 17 - - W 0,0
23.03.2019 05:00:00 2,4 0,2 29 16 48 26 W 0,0
23.03.2019 04:00:00 2,7 0,1 31 17 50 27 WSW 0,0
23.03.2019 03:00:00 2,3 0,4 28 15 - - WSW 0,0
23.03.2019 02:00:00 2,8 0,1 28 15 - - WSW 0,0
23.03.2019 01:00:00 2,7 0,7 28 15 - - WSW 0,0
23.03.2019 00:00:00 3,3 0,9 29 16 - - WSW 0,0
22.03.2019 23:00:00 3,3 1,2 31 17 52 28 WSW 0,0
22.03.2019 22:00:00 3,7 1,9 31 17 52 28 W 0,0
22.03.2019 21:00:00 4,0 2,0 39 21 65 35 W 0,2
22.03.2019 20:00:00 5,3 1,2 35 19 59 32 W 0,0
22.03.2019 19:00:00 5,6 1,4 35 19 63 34 WNW 0,0
22.03.2019 18:00:00 6,2 2,2 44 24 67 36 W 0,0
22.03.2019 17:00:00 7,0 2,9 44 24 65 35 NW 0,0
22.03.2019 16:00:00 7,6 6,6 39 21 57 31 W 0,0
22.03.2019 15:00:00 6,9 6,9 34 18 48 26 WNW 0,2
22.03.2019 14:00:00 6,3 6,0 35 19 67 36 W 1,4
22.03.2019 13:00:00 7,9 7,7 37 20 63 34 SSW 0,8
22.03.2019 12:00:00 8,0 7,3 39 21 65 35 SW 0,8
22.03.2019 11:00:00 8,7 6,5 48 26 68 37 SSW 0,0
22.03.2019 10:00:00 8,6 6,9 46 25 74 40 SSW 0,0
22.03.2019 09:00:00 8,5 6,5 46 25 65 35 SSW 0,0
22.03.2019 08:00:00 8,3 6,7 46 25 65 35 SSW 0,0
22.03.2019 07:00:00 7,7 7,3 42 23 63 34 SSW 0,0
22.03.2019 06:00:00 7,7 7,0 35 19 57 31 SSW 0,0
22.03.2019 05:00:00 7,7 6,4 39 21 61 33 SSW 0,0
22.03.2019 04:00:00 7,4 6,6 35 19 - - S 0,0
22.03.2019 03:00:00 6,9 5,9 29 16 48 26 S 0,0
22.03.2019 02:00:00 7,0 6,1 39 21 52 28 S 0,0
22.03.2019 01:00:00 7,8 6,6 35 19 57 31 S 0,0
22.03.2019 00:00:00 7,8 6,5 34 18 50 27 S 0,0
21.03.2019 23:00:00 7,4 6,6 37 20 50 27 S 0,0
21.03.2019 22:00:00 8,1 7,2 31 17 - - S 0,0
21.03.2019 21:00:00 8,6 7,6 35 19 54 29 S 0,0
21.03.2019 20:00:00 9,1 8,1 31 17 46 25 S 0,0
21.03.2019 19:00:00 9,7 9,1 26 14 - - S 0,0
21.03.2019 18:00:00 10,1 9,6 15 8 - - SSW 0,0
21.03.2019 17:00:00 10,7 9,4 22 12 - - SSW 0,0
21.03.2019 16:00:00 10,5 9,3 15 8 - - W 0,0
21.03.2019 15:00:00 10,6 9,5 21 11 - - W 0,0
21.03.2019 14:00:00 11,2 10,0 28 15 - - WSW 0,0
21.03.2019 13:00:00 10,7 9,7 28 15 - - WSW 0,0
21.03.2019 12:00:00 10,0 9,5 28 15 - - WSW 0,0
21.03.2019 11:00:00 9,6 9,5 29 16 - - WSW 0,0
21.03.2019 10:00:00 9,2 9,2 29 16 - - WSW 0,0
21.03.2019 09:00:00 9,0 9,0 31 17 46 25 W 0,2
21.03.2019 08:00:00 9,0 8,7 31 17 50 27 W 0,0
21.03.2019 07:00:00 9,0 8,4 34 18 54 29 SW 0,0
21.03.2019 06:00:00 8,7 8,2 34 18 55 30 SW 0,0
21.03.2019 05:00:00 8,6 8,1 35 19 48 26 NW 0,0
21.03.2019 04:00:00 8,6 8,4 34 18 50 27 SW 0,0
21.03.2019 03:00:00 8,8 8,5 39 21 55 30 WSW 0,0
21.03.2019 02:00:00 9,1 8,8 39 21 54 29 WSW 0,0
21.03.2019 01:00:00 9,5 9,2 37 20 55 30 SW 0,0
21.03.2019 00:00:00 9,9 9,5 31 17 50 27 WSW 0,0
20.03.2019 23:00:00 9,9 9,6 35 19 52 28 NW 0,2
20.03.2019 22:00:00 10,0 10,0 41 22 54 29 NNW 0,4
20.03.2019 21:00:00 9,9 9,7 37 20 52 28 SW 0,0
20.03.2019 20:00:00 10,4 9,6 39 21 52 28 SSW 0,0
20.03.2019 19:00:00 10,5 9,7 34 18 48 26 SW 0,0

tt = temperature
td = dewpoint
ff = wind speed
fx = gusts
dd = wind direction
rr = precipitation

Next stations